When you browse on this site, cookies collect data to enhance your experience and personalize the content and advertising you see.
Visit our Privacy Policy to learn more. By continuing to use the site, you agree to this use of cookies and data.
  • In United Kingdom
  • List of Countries
  • For 7 days
  • Water Temperature
  • Satellite Maps
  • Weather Map
  • Weather Widgets
  • user-avatar
    Login

    Hourly Weather Veszprem

    Today, 23 April, Tuesday

    Time Temperature Precipitation Wind Pressure Humidity
    00:00 +9°C° 0 mm 7 mps 737 mmHg 83%
    01:00 +9°C° 0 mm 7 mps 737 mmHg 86%
    02:00 +9°C° 0 mm 7 mps 737 mmHg 84%
    03:00 +8°C° 0 mm 7 mps 736 mmHg 81%
    04:00 +8°C° 0 mm 7 mps 736 mmHg 79%
    05:00 +8°C° 0 mm 7 mps 737 mmHg 78%
    06:00 +9°C° 0 mm 7 mps 737 mmHg 77%
    07:00 +9°C° 0 mm 7 mps 737 mmHg 76%
    08:00 +9°C° 0.9 mm 7 mps 737 mmHg 81%
    09:00 +9°C° 0.9 mm 7 mps 737 mmHg 86%
    10:00 +9°C° 0.9 mm 7 mps 737 mmHg 91%
    11:00 +9°C° 0.2 mm 7 mps 737 mmHg 88%
    12:00 +9°C° 0.2 mm 7 mps 737 mmHg 86%
    13:00 +9°C° 0.2 mm 8 mps 737 mmHg 83%
    14:00 +9°C° 0.3 mm 8 mps 737 mmHg 84%
    15:00 +9°C° 0.3 mm 8 mps 737 mmHg 86%
    16:00 +8°C° 0.3 mm 7 mps 736 mmHg 88%
    17:00 +8°C° 0.5 mm 7 mps 736 mmHg 88%
    18:00 +8°C° 0.5 mm 7 mps 736 mmHg 88%
    19:00 +8°C° 0.5 mm 7 mps 736 mmHg 87%
    20:00 +9°C° 0 mm 7 mps 736 mmHg 87%
    21:00 +9°C° 0 mm 6 mps 736 mmHg 87%
    22:00 +9°C° 0 mm 6 mps 736 mmHg 87%
    23:00 +9°C° 0.1 mm 5 mps 736 mmHg 88%

    Tomorrow, 24 April, Wednesday

    Time Temperature Precipitation Wind Pressure Humidity
    00:00 +9°C° 0.1 mm 5 mps 736 mmHg 89%
    01:00 +9°C° 0.1 mm 5 mps 736 mmHg 90%
    02:00 +10°C° 0 mm 4 mps 736 mmHg 91%
    03:00 +10°C° 0 mm 4 mps 736 mmHg 91%
    04:00 +10°C° 0 mm 4 mps 736 mmHg 92%
    05:00 +11°C° 0 mm 4 mps 737 mmHg 90%
    06:00 +12°C° 0 mm 5 mps 737 mmHg 87%
    07:00 +12°C° 0 mm 5 mps 737 mmHg 85%
    08:00 +14°C° 0 mm 5 mps 738 mmHg 78%
    09:00 +16°C° 0 mm 6 mps 738 mmHg 71%
    10:00 +19°C° 0 mm 6 mps 739 mmHg 65%
    11:00 +20°C° 0.5 mm 6 mps 738 mmHg 63%
    12:00 +21°C° 0.5 mm 6 mps 738 mmHg 62%
    13:00 +22°C° 0.5 mm 7 mps 738 mmHg 60%
    14:00 +21°C° 0.4 mm 6 mps 738 mmHg 61%
    15:00 +21°C° 0.4 mm 6 mps 738 mmHg 61%
    16:00 +21°C° 0.4 mm 6 mps 738 mmHg 62%
    17:00 +20°C° 0 mm 5 mps 738 mmHg 67%
    18:00 +19°C° 0 mm 5 mps 738 mmHg 72%
    19:00 +17°C° 0 mm 4 mps 738 mmHg 77%
    20:00 +17°C° 0 mm 4 mps 738 mmHg 77%
    21:00 +15°C° 0 mm 4 mps 739 mmHg 78%
    22:00 +14°C° 0 mm 4 mps 739 mmHg 79%
    23:00 +14°C° 0 mm 5 mps 739 mmHg 78%

    Day after tomorrow, 25 April, Thursday

    Time Temperature Precipitation Wind Pressure Humidity
    00:00 +14°C° 0 mm 6 mps 739 mmHg 78%
    01:00 +14°C° 0 mm 6 mps 739 mmHg 77%
    02:00 +14°C° 0 mm 7 mps 739 mmHg 76%
    03:00 +14°C° 0 mm 7 mps 739 mmHg 75%
    04:00 +13°C° 0 mm 8 mps 739 mmHg 73%
    05:00 +15°C° 0 mm 7 mps 740 mmHg 72%
    06:00 +15°C° 0 mm 7 mps 740 mmHg 70%
    07:00 +16°C° 0 mm 7 mps 741 mmHg 69%
    08:00 +18°C° 0 mm 7 mps 741 mmHg 64%
    09:00 +20°C° 0 mm 7 mps 741 mmHg 59%
    10:00 +22°C° 0 mm 7 mps 741 mmHg 54%
    11:00 +23°C° 0 mm 7 mps 741 mmHg 52%
    12:00 +24°C° 0 mm 7 mps 741 mmHg 51%
    13:00 +26°C° 0 mm 7 mps 740 mmHg 50%
    14:00 +26°C° 0 mm 6 mps 740 mmHg 51%
    15:00 +26°C° 0 mm 6 mps 740 mmHg 51%
    16:00 +26°C° 0 mm 6 mps 739 mmHg 52%
    17:00 +23°C° 0 mm 5 mps 739 mmHg 58%
    18:00 +21°C° 0 mm 4 mps 739 mmHg 64%
    19:00 +19°C° 0 mm 3 mps 739 mmHg 70%
    20:00 +18°C° 0.1 mm 3 mps 739 mmHg 71%
    21:00 +18°C° 0.1 mm 3 mps 739 mmHg 71%
    22:00 +17°C° 0.1 mm 3 mps 739 mmHg 71%
    23:00 +16°C° 0 mm 3 mps 739 mmHg 75%

    26 April, Friday

    Time Temperature Precipitation Wind Pressure Humidity
    00:00 +16°C° 0 mm 3 mps 739 mmHg 78%
    01:00 +14°C° 0 mm 3 mps 739 mmHg 82%
    02:00 +15°C° 0 mm 2 mps 739 mmHg 85%
    03:00 +14°C° 0 mm 2 mps 738 mmHg 87%
    04:00 +14°C° 0 mm 2 mps 738 mmHg 90%
    05:00 +15°C° 0 mm 2 mps 738 mmHg 86%
    06:00 +16°C° 0 mm 3 mps 738 mmHg 81%
    07:00 +17°C° 0 mm 3 mps 738 mmHg 77%
    08:00 +19°C° 0 mm 3 mps 738 mmHg 68%
    09:00 +21°C° 0 mm 4 mps 739 mmHg 60%
    10:00 +23°C° 0 mm 4 mps 739 mmHg 51%
    11:00 +25°C° 0 mm 5 mps 738 mmHg 48%
    12:00 +26°C° 0 mm 5 mps 738 mmHg 45%
    13:00 +26°C° 0 mm 5 mps 737 mmHg 42%
    14:00 +26°C° 0 mm 5 mps 737 mmHg 44%
    15:00 +26°C° 0 mm 5 mps 737 mmHg 45%
    16:00 +26°C° 0 mm 5 mps 736 mmHg 46%
    17:00 +23°C° 0 mm 4 mps 736 mmHg 52%
    18:00 +21°C° 0 mm 3 mps 736 mmHg 58%
    19:00 +19°C° 0 mm 2 mps 736 mmHg 64%
    20:00 +19°C° 0.8 mm 2 mps 736 mmHg 68%
    21:00 +19°C° 0.8 mm 1 mps 736 mmHg 72%
    22:00 +18°C° 0.8 mm 1 mps 737 mmHg 77%
    23:00 +14°C° 3 mm 3 mps 737 mmHg 80%

    27 April, Saturday

    Time Temperature Precipitation Wind Pressure Humidity
    00:00 +13°C° 3 mm 5 mps 737 mmHg 84%
    01:00 +10°C° 3 mm 7 mps 737 mmHg 87%
    02:00 +10°C° 1 mm 7 mps 737 mmHg 88%
    03:00 +9°C° 1 mm 7 mps 737 mmHg 89%
    04:00 +9°C° 1 mm 7 mps 737 mmHg 89%
    05:00 +9°C° 0.3 mm 7 mps 737 mmHg 88%
    06:00 +7°C° 0.3 mm 8 mps 737 mmHg 88%
    07:00 +7°C° 0.3 mm 9 mps 737 mmHg 87%
    08:00 +8°C° 0.1 mm 9 mps 737 mmHg 84%
    09:00 +8°C° 0.1 mm 9 mps 738 mmHg 81%
    10:00 +10°C° 0.1 mm 9 mps 738 mmHg 79%
    11:00 +10°C° 0 mm 8 mps 738 mmHg 79%
    12:00 +10°C° 0 mm 8 mps 739 mmHg 79%
    13:00 +9°C° 0 mm 8 mps 739 mmHg 79%
    14:00 +9°C° 0.3 mm 8 mps 739 mmHg 82%
    15:00 +9°C° 0.3 mm 7 mps 739 mmHg 85%
    16:00 +9°C° 0.3 mm 7 mps 739 mmHg 88%
    17:00 +9°C° 1.5 mm 7 mps 739 mmHg 89%
    18:00 +9°C° 1.5 mm 7 mps 739 mmHg 90%
    19:00 +9°C° 1.5 mm 8 mps 739 mmHg 92%
    20:00 +9°C° 1.7 mm 8 mps 740 mmHg 91%
    21:00 +9°C° 1.7 mm 8 mps 740 mmHg 91%
    22:00 +9°C° 1.7 mm 8 mps 740 mmHg 91%
    23:00 +9°C° 1 mm 8 mps 740 mmHg 91%

    28 April, Sunday

    Time Temperature Precipitation Wind Pressure Humidity
    00:00 +8°C° 1 mm 9 mps 740 mmHg 91%
    01:00 +8°C° 1 mm 9 mps 740 mmHg 91%
    02:00 +8°C° 1 mm 9 mps 740 mmHg 90%
    03:00 +7°C° 1 mm 10 mps 741 mmHg 90%
    04:00 +7°C° 1 mm 10 mps 741 mmHg 90%
    05:00 +7°C° 0.8 mm 10 mps 741 mmHg 88%
    06:00 +6°C° 0.8 mm 10 mps 741 mmHg 87%
    07:00 +6°C° 0.8 mm 10 mps 742 mmHg 85%
    08:00 +7°C° 0.1 mm 10 mps 742 mmHg 82%
    09:00 +7°C° 0.1 mm 10 mps 743 mmHg 79%
    10:00 +8°C° 0.1 mm 11 mps 743 mmHg 76%
    11:00 +9°C° 0 mm 10 mps 743 mmHg 70%
    12:00 +11°C° 0 mm 9 mps 743 mmHg 64%
    13:00 +12°C° 0 mm 9 mps 743 mmHg 59%
    14:00 +12°C° 0 mm 8 mps 743 mmHg 58%
    15:00 +12°C° 0 mm 7 mps 743 mmHg 58%
    16:00 +13°C° 0 mm 6 mps 743 mmHg 57%
    17:00 +12°C° 0 mm 5 mps 743 mmHg 62%
    18:00 +10°C° 0 mm 3 mps 743 mmHg 67%
    19:00 +9°C° 0 mm 2 mps 743 mmHg 72%
    20:00 +8°C° 0 mm 2 mps 743 mmHg 70%
    21:00 +9°C° 0 mm 1 mps 743 mmHg 68%
    22:00 +8°C° 0 mm 1 mps 743 mmHg 67%
    23:00 +8°C° 0 mm 1 mps 743 mmHg 67%
    Show more